CAPE
1 1 2 2 2 1 1 2 2 2 2 4 4 4 5 3 3 3 1 0 0 1 4 11 11 18 2 nan nan nan 2 4 6 6 5 5 6 6 6 4 4 3 2 3 3 3 3 4 4 3 4 5 6 6 5 8 8 11 16 24 24 27 30 33 33 30 23 20 18 18 14 8 2 2 nan nan nan nan nan nan nan nan nan nan nan nan
1 1 2 2 2 1 2 3 2 2 2 3 3 3 4 2 1 1 0 nan nan nan nan 2 2 9 3 nan 0 0 3 6 6 6 6 6 8 8 9 7 7 6 3 2 2 1 1 1 1 1 2 3 3 3 5 8 8 10 16 19 19 25 29 31 31 27 22 25 15 15 13 2 nan nan nan nan nan nan nan nan nan nan nan nan nan nan
1 1 1 2 2 2 2 3 3 3 3 2 2 2 2 0 0 0 0 nan nan nan nan 1 1 1 nan 0 2 2 5 7 6 6 5 7 10 10 9 10 10 8 4 2 2 0 nan nan nan nan nan 1 2 2 4 7 7 9 13 16 16 18 19 17 17 13 9 7 4 4 0 nan nan nan nan nan nan nan nan nan nan nan nan nan nan nan
1 0 1 2 2 2 1 2 3 3 3 1 2 2 3 1 0 0 0 0 0 nan nan nan nan nan nan nan 4 4 7 8 7 7 7 8 9 9 11 9 9 7 4 2 2 nan nan nan nan nan nan nan 0 0 0 1 1 3 6 9 9 5 2 0 0 nan nan nan nan nan nan nan nan nan nan nan nan nan nan nan nan nan nan nan nan nan
1 0 1 2 2 2 3 4 3 3 3 2 2 2 2 0 0 0 1 0 0 0 0 nan nan nan nan nan 9 9 7 8 7 7 8 8 9 9 11 10 10 8 5 4 4 2 0 nan nan nan nan nan nan nan nan nan nan nan nan nan nan nan nan nan nan nan nan nan nan nan nan nan nan nan nan nan nan nan nan nan nan nan nan nan nan nan
1 0 0 2 2 2 4 3 3 3 1 1 1 1 0 0 1 1 1 1 1 0 0 0 0 nan nan nan 8 8 10 9 9 9 8 9 10 10 12 10 10 7 6 4 4 3 1 0 0 nan nan nan nan nan nan nan nan nan nan nan nan nan nan nan nan nan nan nan nan nan nan nan nan nan nan nan nan nan nan nan nan nan nan nan nan nan
0 1 1 1 1 2 3 3 3 3 1 0 0 0 0 1 1 1 1 1 1 0 0 0 0 0 nan nan 4 4 10 10 9 9 9 12 11 11 11 9 9 9 8 8 8 6 3 2 2 1 0 nan nan nan nan nan nan nan nan nan nan nan nan nan nan nan nan nan nan nan nan nan nan nan nan nan nan nan nan nan nan nan nan nan nan nan
nan 0 1 0 0 1 0 0 3 3 2 2 1 1 2 1 1 1 1 0 0 0 0 0 0 nan nan nan nan nan nan nan 1 1 4 16 17 17 14 12 12 12 14 15 15 14 12 10 10 8 6 5 2 2 0 nan nan nan nan nan nan nan nan nan nan nan nan nan nan nan nan nan nan nan nan nan nan nan nan nan nan nan nan nan nan nan
nan 0 0 0 0 1 1 2 4 4 2 3 2 2 1 0 1 1 1 0 0 0 0 nan nan 0 0 nan nan nan 0 0 nan nan nan 0 0 0 20 18 18 17 16 16 16 13 11 11 11 11 9 8 6 6 3 nan nan nan nan nan nan nan nan nan nan nan nan nan nan nan nan nan nan nan nan nan nan nan nan nan nan nan nan nan nan nan
nan nan 0 0 0 1 1 2 1 1 1 0 0 0 0 nan 0 0 0 0 0 0 0 nan nan 0 nan nan nan nan nan 0 2 2 2 nan 10 10 2 3 3 20 15 18 18 15 12 11 11 12 13 12 10 10 6 0 0 nan nan nan nan nan nan nan nan nan nan nan nan nan nan nan nan nan nan nan nan nan nan nan nan nan nan nan nan nan
0 0 nan nan nan 0 1 1 1 1 0 1 0 0 nan nan 1 1 0 0 0 0 0 0 0 0 0 nan nan nan nan nan nan nan nan nan nan nan nan nan nan nan nan 2 2 10 9 10 10 12 13 12 11 11 6 1 1 nan nan nan nan nan nan nan nan nan nan nan nan nan nan nan nan nan nan nan nan nan nan nan nan nan nan nan nan nan
nan 0 0 0 0 0 1 0 1 1 1 1 1 1 0 0 nan nan nan nan nan nan 0 0 0 nan nan nan nan nan nan nan nan nan nan nan nan nan nan nan nan nan nan nan nan nan 1 5 5 8 7 8 7 7 5 1 1 nan nan nan nan nan nan nan nan nan nan nan nan nan nan nan nan nan nan nan nan nan nan nan nan nan nan nan nan nan
0 0 0 1 1 2 1 1 1 1 1 1 1 1 1 nan nan nan nan nan nan nan nan 0 0 nan nan nan nan nan nan nan nan nan nan nan nan nan nan nan nan nan nan nan nan nan nan nan nan nan 1 3 1 1 1 1 1 nan nan nan nan nan nan nan nan nan nan nan nan nan nan nan nan nan nan nan nan nan nan nan nan nan nan nan nan nan
0 0 1 1 1 1 2 1 1 1 1 3 1 1 nan nan nan nan nan nan nan nan nan nan nan 0 nan nan nan nan nan nan nan nan nan nan nan nan nan nan nan nan nan nan nan nan nan nan nan nan nan 1 1 1 1 1 1 0 0 nan nan nan nan nan nan nan nan nan nan nan nan nan nan nan nan nan nan nan nan nan nan nan nan nan nan nan
0 0 1 0 0 1 1 1 0 0 0 nan 0 0 nan nan nan nan nan nan nan nan nan nan nan nan 0 nan nan nan nan nan nan nan nan nan nan nan nan nan nan nan nan nan nan nan nan nan nan nan nan nan nan nan nan 1 1 nan 0 0 0 0 0 nan nan nan nan nan nan nan nan nan nan nan nan nan nan nan nan nan nan nan nan nan nan nan
nan nan nan nan nan nan nan 1 nan nan nan nan nan nan nan nan nan nan nan nan nan nan nan nan nan nan 0 nan nan nan nan nan nan nan nan nan nan nan nan nan nan nan nan nan nan nan nan nan nan nan nan nan nan nan nan nan nan nan nan 0 0 0 1 0 0 0 nan nan nan nan nan nan nan nan nan nan nan nan nan nan nan nan nan nan nan nan
nan nan nan nan nan nan nan nan nan nan nan 0 nan nan nan nan nan nan nan nan nan nan nan nan nan nan 0 nan nan nan nan nan nan nan nan nan nan nan nan nan nan nan nan nan nan nan nan nan nan nan nan nan nan nan nan nan nan nan nan nan nan nan nan nan nan nan nan nan nan nan nan nan nan nan nan nan nan nan nan nan nan nan nan nan nan nan
0 nan nan nan nan nan nan nan nan nan nan nan nan nan nan nan nan nan nan nan nan nan nan nan nan nan nan nan nan nan nan nan nan nan nan nan nan nan nan nan nan nan nan nan nan nan nan nan nan nan nan nan nan nan nan nan nan nan nan nan nan nan nan nan nan nan nan nan 0 0 0 nan nan nan nan nan 0 0 nan nan nan 0 0 1 1 0
0 nan 0 nan nan nan nan nan nan nan nan nan nan nan nan nan nan nan nan nan nan nan nan nan nan nan nan nan nan nan nan nan nan nan nan nan nan nan nan nan nan nan nan nan nan nan nan nan nan nan nan nan nan nan nan nan nan nan nan nan nan nan nan nan nan nan nan nan nan nan 0 0 nan nan nan 0 0 0 1 0 0 0 0 1 1 0
0 nan nan nan nan 0 0 0 nan nan nan nan nan nan nan nan nan nan nan nan nan nan nan nan nan nan nan nan nan nan nan nan nan nan nan nan nan nan nan nan nan nan nan nan nan nan nan nan nan nan nan nan nan nan nan nan nan nan nan nan nan nan nan nan nan nan nan nan nan nan 0 0 0 0 0 1 1 1 2 2 2 1 1 2 2 2
0 nan nan 0 0 0 0 nan nan nan nan nan nan nan nan nan nan nan nan nan nan nan nan nan nan nan nan nan nan nan nan nan nan nan nan nan nan nan nan nan nan nan nan nan nan nan nan nan nan nan nan nan nan nan nan nan nan nan nan nan nan nan nan nan nan nan nan nan nan nan 0 1 1 1 1 1 2 2 3 3 3 2 2 2 2 3
0 0 0 nan nan 0 nan nan 0 0 1 nan nan nan nan nan nan nan nan nan nan nan nan nan nan nan nan nan nan nan nan nan nan nan nan nan nan nan nan nan nan nan nan nan nan nan nan nan nan nan nan nan nan nan nan nan nan nan nan nan nan nan nan nan nan nan nan nan 0 0 1 3 2 2 2 2 3 3 3 3 3 2 2 2 2 3
2 3 nan nan nan nan nan nan 0 0 1 0 0 0 nan nan nan nan nan nan nan nan nan nan nan nan nan nan nan nan nan nan nan nan nan nan nan nan nan nan nan nan nan nan nan nan nan nan nan nan nan nan nan nan nan nan nan nan nan nan nan nan nan nan nan nan nan nan 0 0 2 4 4 4 3 3 3 3 3 3 3 2 1 2 2 2
nan nan nan nan nan nan nan nan 0 0 nan nan nan nan nan nan nan nan nan nan nan nan nan nan nan nan nan nan nan nan nan nan nan nan nan nan nan nan nan nan nan nan nan nan nan nan nan nan nan nan nan nan nan nan nan nan nan nan nan nan nan nan nan nan nan nan nan 0 1 1 3 6 5 5 4 4 4 4 3 2 2 2 1 1 1 1
nan nan nan nan nan nan nan nan nan nan nan nan nan nan nan nan nan nan nan nan nan nan nan nan nan nan nan nan nan nan nan nan nan nan nan nan nan nan nan nan nan nan nan nan nan nan nan nan nan nan nan nan nan nan nan nan nan nan nan nan nan nan nan nan nan nan nan 1 2 2 5 7 6 6 5 5 6 6 5 3 3 2 2 2 2 2
nan nan nan nan nan nan nan nan nan nan nan nan nan nan nan nan nan nan nan nan nan nan nan nan nan nan nan nan nan nan nan nan nan nan nan nan nan nan nan nan nan nan nan nan nan nan nan nan nan nan nan nan nan nan nan nan nan nan nan nan nan nan nan nan nan nan 0 1 3 3 5 7 7 7 5 6 7 7 7 5 5 3 4 4 4 5
0 0 0 nan nan 0 0 1 1 1 0 nan nan nan nan nan nan nan nan nan nan nan nan nan nan nan nan nan nan nan nan nan nan nan nan nan nan nan nan nan nan nan nan nan nan nan nan nan nan nan nan nan nan nan nan nan nan nan nan nan nan nan nan nan nan nan 0 2 4 4 6 7 6 6 6 6 9 9 12 9 9 7 7 7 7 7
1 2 1 1 1 1 1 3 4 4 2 0 nan nan nan nan nan nan nan nan nan nan nan nan nan nan nan nan nan nan nan nan nan nan nan nan nan nan nan nan nan nan nan nan nan nan nan nan nan nan nan nan nan nan nan nan nan nan nan nan nan nan nan nan nan nan 1 2 3 3 5 6 5 5 5 6 9 9 12 12 12 10 9 9 9 9
0 1 2 2 2 3 3 3 4 4 5 4 2 2 nan nan nan nan nan nan nan nan nan nan nan nan nan nan nan nan nan nan nan nan nan nan nan nan nan nan nan nan nan nan nan nan nan nan nan nan nan nan nan nan nan nan nan nan nan nan nan nan nan nan nan 1 2 3 4 4 4 5 5 5 4 5 9 9 13 13 13 13 10 12 12 10
nan nan nan 0 0 nan 0 3 4 4 5 6 3 3 nan nan nan nan nan nan nan nan nan nan nan nan nan nan nan nan nan nan nan nan nan nan nan nan nan nan nan nan nan nan nan nan nan nan nan nan nan nan nan nan nan nan nan nan nan nan nan nan nan 0 0 1 2 2 3 3 4 5 5 5 4 5 8 8 12 13 13 12 12 9 9 nan
nan nan nan nan nan nan nan nan nan nan 6 5 nan nan nan nan nan nan nan nan nan nan nan nan nan nan nan nan nan nan nan nan nan nan nan nan nan nan nan nan nan nan nan nan nan nan nan nan nan nan nan nan nan nan nan nan nan nan nan nan nan nan nan nan nan 0 1 2 3 3 4 5 5 5 5 5 7 7 11 12 12 10 nan nan nan nan
nan nan nan nan nan nan nan nan nan nan nan nan nan nan nan nan nan nan nan nan nan nan nan nan nan nan nan nan nan nan nan nan nan nan nan nan nan nan nan nan nan nan nan nan nan nan nan nan nan nan nan nan nan nan nan nan nan nan nan nan nan nan nan nan nan nan nan nan 1 1 3 3 5 5 6 7 9 9 11 14 14 15 0 nan nan 0
nan nan nan nan nan nan nan nan nan nan nan nan nan nan nan nan nan nan nan nan nan nan nan nan nan nan nan nan nan nan nan nan nan nan nan nan nan nan nan nan nan nan nan nan nan nan nan nan nan nan nan nan nan nan nan nan nan nan nan nan nan nan nan nan nan nan nan nan nan nan nan nan 1 1 5 8 10 10 12 13 13 14 8 nan nan 3
nan nan nan nan nan nan nan nan nan nan nan nan nan nan nan nan nan nan nan nan nan nan nan nan nan nan nan nan nan nan nan nan nan nan nan nan nan nan nan nan nan nan nan nan nan nan nan nan nan nan nan nan nan nan nan nan nan nan nan nan nan nan nan nan nan nan nan nan nan nan nan nan nan nan nan 2 7 7 11 13 13 14 9 2 2 2
nan nan nan nan nan nan nan nan nan nan nan nan nan nan nan nan nan nan nan nan nan nan nan nan nan nan nan nan nan nan nan nan nan nan nan nan nan nan nan nan nan nan nan nan nan nan nan nan nan nan nan nan nan nan nan nan nan nan nan nan nan nan nan nan nan nan nan nan nan nan nan nan nan nan nan nan 1 1 6 9 9 12 10 5 5 2
nan nan nan nan nan nan nan nan nan nan nan nan nan nan nan nan nan nan nan nan nan nan nan nan nan nan nan nan nan nan nan nan nan nan 0 nan nan nan nan nan nan nan nan nan nan nan nan nan nan nan nan nan nan nan nan nan nan nan nan nan nan nan nan nan nan nan nan nan nan nan nan nan nan nan nan nan nan nan nan 2 2 6 8 7 7 4
nan nan nan nan nan nan nan nan nan nan nan nan nan nan nan nan nan nan nan nan nan nan nan nan nan nan nan nan nan nan nan nan nan nan nan nan nan nan nan nan nan nan nan nan nan nan nan nan nan nan nan nan nan nan nan nan nan nan nan nan nan nan nan nan nan nan nan nan nan nan nan nan nan nan nan nan nan nan nan nan nan nan 0 5 5 8
nan nan nan nan nan nan nan nan nan nan nan nan nan nan nan nan nan nan nan nan nan nan nan nan nan nan nan nan nan nan nan nan nan nan nan nan nan nan nan nan nan nan nan nan nan nan nan nan nan nan nan nan nan nan nan nan nan nan nan nan nan nan nan nan nan nan nan nan nan nan nan nan nan nan nan nan nan nan nan nan nan nan nan nan nan 3
nan nan nan nan nan nan nan nan nan nan nan nan nan nan nan nan nan nan nan nan nan nan nan nan nan nan nan nan nan nan nan nan nan nan nan nan nan nan nan nan nan nan nan nan nan nan nan nan nan nan nan nan nan nan nan nan nan nan nan nan nan nan nan nan nan nan nan nan nan nan nan nan nan nan nan nan nan nan nan nan nan nan nan nan nan nan
nan nan nan nan nan nan nan nan nan nan nan nan nan nan nan nan nan nan nan nan nan nan nan nan nan nan nan nan nan nan nan nan nan nan 1 0 nan nan nan nan nan nan nan nan nan nan nan nan nan nan nan nan nan nan nan nan nan nan nan nan nan nan nan nan nan nan nan nan nan nan nan nan nan nan nan nan nan nan nan nan nan nan nan nan nan nan
nan nan nan nan nan nan nan nan nan nan nan nan nan nan nan nan nan nan nan nan nan nan nan nan nan nan nan nan nan nan nan nan nan nan nan nan nan nan nan nan nan nan nan nan nan nan nan nan nan nan nan nan nan nan nan nan nan nan nan nan nan nan nan nan nan nan nan nan nan nan nan nan nan nan nan nan nan nan nan nan nan nan nan nan nan nan
nan nan nan nan nan nan nan nan nan nan nan nan nan nan nan nan nan nan nan nan nan nan nan nan nan nan nan nan nan nan nan nan nan nan nan nan nan nan nan nan nan nan nan nan nan nan nan nan nan nan nan nan nan nan nan nan nan nan nan nan nan nan nan nan nan nan nan nan nan nan nan nan nan nan nan nan nan nan nan nan nan nan nan nan nan nan
nan nan nan nan nan nan nan nan nan nan nan nan nan nan nan nan nan nan nan nan nan nan nan nan nan nan nan nan nan nan nan nan nan nan nan nan nan nan nan nan nan nan nan nan nan nan nan nan nan nan nan nan nan nan nan nan nan nan nan nan nan nan nan nan nan nan nan nan nan nan nan nan nan nan nan nan nan nan nan nan nan nan nan nan nan nan
nan nan nan nan nan nan nan nan nan nan nan nan nan nan nan nan nan nan nan nan nan nan nan nan nan nan nan nan nan nan nan nan nan nan nan nan nan nan nan nan nan nan nan nan nan nan nan nan nan nan nan nan nan nan nan nan nan nan nan nan nan nan nan nan nan nan nan nan nan nan nan nan nan nan nan nan nan nan nan nan nan nan nan nan nan nan
nan nan nan nan nan nan nan nan nan nan nan nan nan nan nan nan nan nan nan nan nan nan nan nan nan nan nan nan nan nan nan nan nan nan nan nan 1 1 nan nan nan nan nan nan nan nan nan nan nan nan nan nan nan nan nan nan nan nan nan nan nan nan nan nan nan nan nan nan nan nan nan nan nan nan nan nan nan nan nan nan nan nan nan nan nan nan
nan nan nan nan nan nan nan nan nan nan nan nan nan nan nan nan nan nan nan nan nan nan nan nan nan nan nan nan nan nan nan nan nan nan nan nan nan nan nan nan nan nan nan nan nan nan nan nan nan nan nan nan nan nan nan nan nan nan nan nan nan nan nan nan nan nan nan nan nan nan nan nan nan nan nan nan nan nan nan nan nan nan nan nan nan nan
nan nan nan nan nan nan nan nan nan nan nan nan nan nan nan nan nan nan nan nan nan nan nan nan nan nan nan nan nan nan nan nan nan nan nan nan nan nan nan nan nan nan nan nan nan nan nan nan nan nan nan nan nan nan nan nan nan nan nan nan nan nan nan nan nan nan nan nan nan nan nan nan nan nan nan nan nan nan nan nan nan nan nan nan nan nan
nan nan nan nan nan nan nan nan nan nan nan nan nan nan nan nan nan nan nan nan nan nan nan nan nan nan nan nan nan nan nan nan nan nan nan nan nan nan nan nan nan nan nan nan nan nan nan nan nan nan nan nan nan nan nan nan nan nan nan nan nan nan nan nan nan nan nan nan nan nan nan nan nan nan nan nan nan nan nan nan nan nan nan nan nan nan
nan nan nan nan nan nan nan nan nan nan nan nan nan nan nan nan nan nan nan nan nan nan nan nan nan nan nan nan nan nan nan nan nan nan nan nan nan nan nan nan nan nan nan nan nan nan nan nan nan nan nan nan nan nan nan nan nan nan nan nan nan nan nan nan nan nan nan nan nan nan nan nan nan nan nan nan nan nan nan nan nan nan nan nan nan nan
nan nan nan nan nan nan nan nan nan nan nan nan nan nan nan nan nan nan nan nan nan nan nan nan nan nan nan nan nan nan nan nan nan nan nan nan nan nan nan nan nan nan nan nan nan nan nan 0 0 0 0 nan nan nan nan nan nan nan nan nan nan nan nan nan nan nan nan nan nan nan nan nan nan nan nan nan nan nan nan nan nan nan nan nan nan nan
nan nan nan nan nan nan nan nan nan nan nan nan nan nan nan nan nan nan nan nan nan nan nan nan nan nan nan nan nan nan nan nan nan nan nan nan nan nan nan nan nan nan nan nan nan nan nan nan nan nan 0 4 nan nan nan nan nan nan nan nan nan nan nan nan nan nan nan nan nan nan nan nan nan nan nan nan nan nan nan nan nan nan nan nan nan nan
CIN
-0 -0 -0 -0 -0 -0 -0 -0 -0 -0 -0 -0 -0 -0 -0 -0 -0 -0 -0 -0 -0 -0 -1 -0 -0 -0 -4 nan nan nan -0 -0 -0 -0 -0 -0 -0 -0 -0 -0 -0 -0 -0 -0 -0 -0 -0 -0 -0 -0 -0 -0 -0 -0 -0 -0 -0 -0 -0 -0 -0 -0 -0 -0 -0 -0 -0 -0 -0 -0 -0 -0 -0 -0 nan nan nan nan nan nan nan nan nan nan nan nan
-0 -0 -0 -0 -0 -0 -0 -0 -0 -0 -0 -0 -0 -0 -0 -0 -0 -0 -0 nan nan nan nan -0 -0 -0 -0 nan -1 -1 -0 -0 -0 -0 -0 -0 -0 -0 -0 -0 -0 -0 -0 -0 -0 -0 -0 -0 -0 -0 -0 -1 -1 -1 -0 -0 -0 -0 -0 -1 -1 -0 -0 -0 -0 -0 -0 -0 -0 -0 -0 -0 nan nan nan nan nan nan nan nan nan nan nan nan nan nan
-0 -0 -0 -0 -0 -0 -0 -0 -0 -0 -0 -0 -0 -0 -0 -0 -0 -0 -0 nan nan nan nan -0 -0 -0 nan -0 -0 -0 -0 -0 -0 -0 -0 -0 -0 -0 -0 -0 -0 -0 -0 -0 -0 -1 nan nan nan nan nan -1 -1 -1 -1 -2 -2 -1 -3 -4 -4 -5 -0 -0 -0 -0 -1 -0 -1 -1 -1 nan nan nan nan nan nan nan nan nan nan nan nan nan nan nan
-0 -0 -0 -0 -0 -0 -0 -0 -0 -0 -0 -0 -0 -0 -0 -0 -0 -0 -0 -0 -0 nan nan nan nan nan nan nan -0 -0 -0 -0 -0 -0 -0 -0 -0 -0 -0 -0 -0 -0 -0 -0 -0 nan nan nan nan nan nan nan -0 -0 -3 -4 -4 -4 -8 -9 -9 -7 -6 -7 -7 nan nan nan nan nan nan nan nan nan nan nan nan nan nan nan nan nan nan nan nan nan
-0 -0 -0 -0 -0 -0 -0 -0 -0 -0 -0 -0 -0 -0 -0 -0 -0 -0 -0 -0 -0 -0 -0 nan nan nan nan nan -0 -0 -0 -0 -0 -0 -0 -0 -0 -0 -0 -0 -0 -0 -0 -0 -0 -0 -1 nan nan nan nan nan nan nan nan nan nan nan nan nan nan nan nan nan nan nan nan nan nan nan nan nan nan nan nan nan nan nan nan nan nan nan nan nan nan nan
-0 -0 -0 -0 -0 -0 -0 -0 -0 -0 -0 -0 -0 -0 -0 -0 -0 -0 -0 -0 -0 -0 -0 -0 -0 nan nan nan -0 -0 -0 -0 -0 -0 -0 -0 -0 -0 -0 -0 -0 -0 -0 -0 -0 -0 -0 -1 -1 nan nan nan nan nan nan nan nan nan nan nan nan nan nan nan nan nan nan nan nan nan nan nan nan nan nan nan nan nan nan nan nan nan nan nan nan nan
-0 -0 -0 -0 -0 -0 -0 -0 -0 -0 -0 -0 -0 -0 -0 -0 -0 -0 -0 -0 -0 -0 -0 -0 -0 -0 nan nan -1 -1 -0 -0 -0 -0 -0 -0 -0 -0 -0 -0 -0 -0 -0 -0 -0 -0 -0 -0 -0 -2 -2 nan nan nan nan nan nan nan nan nan nan nan nan nan nan nan nan nan nan nan nan nan nan nan nan nan nan nan nan nan nan nan nan nan nan nan
nan -0 -0 -0 -0 -0 -0 -0 -0 -0 -0 -0 -0 -0 -0 -0 -0 -0 -0 -0 -0 -0 -0 -0 -0 nan nan nan nan nan nan nan -0 -0 -0 -0 -0 -0 -0 -0 -0 -0 -0 -0 -0 -0 -0 -0 -0 -0 -0 -0 -1 -1 -3 nan nan nan nan nan nan nan nan nan nan nan nan nan nan nan nan nan nan nan nan nan nan nan nan nan nan nan nan nan nan nan
nan -0 -0 -0 -0 -0 -0 -0 -0 -0 -0 -0 -0 -0 -0 -0 -0 -0 -0 -0 -0 -0 -0 nan nan -0 -0 nan nan nan -0 -0 nan nan nan -0 -4 -4 -0 -0 -0 -0 -0 -0 -0 -0 -0 -0 -0 -0 -0 -0 -0 -0 -2 nan nan nan nan nan nan nan nan nan nan nan nan nan nan nan nan nan nan nan nan nan nan nan nan nan nan nan nan nan nan nan
nan nan -0 -0 -0 -0 -0 -0 -0 -0 -0 -0 -0 -0 -0 nan -0 -0 -0 -0 -0 -0 -0 nan nan -0 nan nan nan nan nan -0 -0 -0 -0 nan -0 -0 -2 -5 -5 -0 -0 -0 -0 -0 -0 -0 -0 -0 -0 -0 -1 -1 -3 -4 -4 nan nan nan nan nan nan nan nan nan nan nan nan nan nan nan nan nan nan nan nan nan nan nan nan nan nan nan nan nan
-0 -0 nan nan nan -0 -0 -0 -0 -0 -0 -0 -0 -0 nan nan -0 -0 -0 -0 -0 -0 -0 -0 -0 -0 -0 nan nan nan nan nan nan nan nan nan nan nan nan nan nan nan nan -12 -12 -0 -2 -0 -0 -0 -0 -0 -2 -2 -3 -4 -4 nan nan nan nan nan nan nan nan nan nan nan nan nan nan nan nan nan nan nan nan nan nan nan nan nan nan nan nan nan
nan -0 -0 -0 -0 -0 -0 -0 -0 -0 -0 -0 -0 -0 -0 -0 nan nan nan nan nan nan -0 -0 -0 nan nan nan nan nan nan nan nan nan nan nan nan nan nan nan nan nan nan nan nan nan -6 -4 -4 -3 -0 -0 -1 -1 -0 -2 -2 nan nan nan nan nan nan nan nan nan nan nan nan nan nan nan nan nan nan nan nan nan nan nan nan nan nan nan nan nan
-0 -0 -0 -0 -0 -0 -0 -0 -0 -0 -0 -0 -0 -0 -0 nan nan nan nan nan nan nan nan -0 -0 nan nan nan nan nan nan nan nan nan nan nan nan nan nan nan nan nan nan nan nan nan nan nan nan nan -0 -0 -1 -1 -2 -2 -2 nan nan nan nan nan nan nan nan nan nan nan nan nan nan nan nan nan nan nan nan nan nan nan nan nan nan nan nan nan
-0 -0 -0 -0 -0 -0 -0 -0 -0 -0 -0 -0 -1 -1 nan nan nan nan nan nan nan nan nan nan nan -0 nan nan nan nan nan nan nan nan nan nan nan nan nan nan nan nan nan nan nan nan nan nan nan nan nan -0 -0 -0 -0 -0 -0 -0 -0 nan nan nan nan nan nan nan nan nan nan nan nan nan nan nan nan nan nan nan nan nan nan nan nan nan nan nan
-0 -0 -0 -0 -0 -0 -0 -0 -0 -0 -1 nan -0 -0 nan nan nan nan nan nan nan nan nan nan nan nan -0 nan nan nan nan nan nan nan nan nan nan nan nan nan nan nan nan nan nan nan nan nan nan nan nan nan nan nan nan -0 -0 nan -0 -0 -0 -0 -0 nan nan nan nan nan nan nan nan nan nan nan nan nan nan nan nan nan nan nan nan nan nan nan
nan nan nan nan nan nan nan -0 nan nan nan nan nan nan nan nan nan nan nan nan nan nan nan nan nan nan -0 nan nan nan nan nan nan nan nan nan nan nan nan nan nan nan nan nan nan nan nan nan nan nan nan nan nan nan nan nan nan nan nan -0 -0 -0 -0 -0 -0 -0 nan nan nan nan nan nan nan nan nan nan nan nan nan nan nan nan nan nan nan nan
nan nan nan nan nan nan nan nan nan nan nan -0 nan nan nan nan nan nan nan nan nan nan nan nan nan nan -0 nan nan nan nan nan nan nan nan nan nan nan nan nan nan nan nan nan nan nan nan nan nan nan nan nan nan nan nan nan nan nan nan nan nan nan nan nan nan nan nan nan nan nan nan nan nan nan nan nan nan nan nan nan nan nan nan nan nan nan
-0 nan nan nan nan nan nan nan nan nan nan nan nan nan nan nan nan nan nan nan nan nan nan nan nan nan nan nan nan nan nan nan nan nan nan nan nan nan nan nan nan nan nan nan nan nan nan nan nan nan nan nan nan nan nan nan nan nan nan nan nan nan nan nan nan nan nan nan -0 -0 -0 nan nan nan nan nan -0 -0 nan nan nan -0 -0 -0 -0 -0
-0 nan -0 nan nan nan nan nan nan nan nan nan nan nan nan nan nan nan nan nan nan nan nan nan nan nan nan nan nan nan nan nan nan nan nan nan nan nan nan nan nan nan nan nan nan nan nan nan nan nan nan nan nan nan nan nan nan nan nan nan nan nan nan nan nan nan nan nan nan nan -0 -0 nan nan nan -0 -0 -0 -0 -0 -0 -0 -0 -0 -0 -0
-0 nan nan nan nan -0 -0 -0 nan nan nan nan nan nan nan nan nan nan nan nan nan nan nan nan nan nan nan nan nan nan nan nan nan nan nan nan nan nan nan nan nan nan nan nan nan nan nan nan nan nan nan nan nan nan nan nan nan nan nan nan nan nan nan nan nan nan nan nan nan nan -0 -0 -0 -0 -0 -0 -0 -0 -0 -0 -0 -0 -0 -0 -0 -0
-0 nan nan -0 -0 -0 -0 nan nan nan nan nan nan nan nan nan nan nan nan nan nan nan nan nan nan nan nan nan nan nan nan nan nan nan nan nan nan nan nan nan nan nan nan nan nan nan nan nan nan nan nan nan nan nan nan nan nan nan nan nan nan nan nan nan nan nan nan nan nan nan -0 -0 -0 -0 -0 -0 -0 -0 -0 -0 -0 -0 -0 -0 -0 -0
-0 -0 -0 nan nan -0 nan nan -0 -0 -0 nan nan nan nan nan nan nan nan nan nan nan nan nan nan nan nan nan nan nan nan nan nan nan nan nan nan nan nan nan nan nan nan nan nan nan nan nan nan nan nan nan nan nan nan nan nan nan nan nan nan nan nan nan nan nan nan nan -0 -0 -0 -0 -0 -0 -0 -0 -0 -0 -0 -0 -0 -0 -0 -0 -0 -0
-0 -0 nan nan nan nan nan nan -0 -0 -0 -0 -0 -0 nan nan nan nan nan nan nan nan nan nan nan nan nan nan nan nan nan nan nan nan nan nan nan nan nan nan nan nan nan nan nan nan nan nan nan nan nan nan nan nan nan nan nan nan nan nan nan nan nan nan nan nan nan nan -0 -0 -0 -0 -0 -0 -0 -0 -0 -0 -0 -0 -0 -0 -0 -0 -0 -0
nan nan nan nan nan nan nan nan -0 -0 nan nan nan nan nan nan nan nan nan nan nan nan nan nan nan nan nan nan nan nan nan nan nan nan nan nan nan nan nan nan nan nan nan nan nan nan nan nan nan nan nan nan nan nan nan nan nan nan nan nan nan nan nan nan nan nan nan -0 -0 -0 -0 -0 -0 -0 -0 -0 -0 -0 -0 -0 -0 -0 -0 -0 -0 -0
nan nan nan nan nan nan nan nan nan nan nan nan nan nan nan nan nan nan nan nan nan nan nan nan nan nan nan nan nan nan nan nan nan nan nan nan nan nan nan nan nan nan nan nan nan nan nan nan nan nan nan nan nan nan nan nan nan nan nan nan nan nan nan nan nan nan nan -0 -0 -0 -0 -0 -0 -0 -0 -0 -0 -0 -0 -0 -0 -0 -0 -0 -0 -0
nan nan nan nan nan nan nan nan nan nan nan nan nan nan nan nan nan nan nan nan nan nan nan nan nan nan nan nan nan nan nan nan nan nan nan nan nan nan nan nan nan nan nan nan nan nan nan nan nan nan nan nan nan nan nan nan nan nan nan nan nan nan nan nan nan nan -0 -0 -0 -0 -0 -0 -0 -0 -0 -0 -0 -0 -0 -0 -0 -0 -0 -0 -0 -0
-0 -0 -0 nan nan -0 -0 -0 -0 -0 -0 nan nan nan nan nan nan nan nan nan nan nan nan nan nan nan nan nan nan nan nan nan nan nan nan nan nan nan nan nan nan nan nan nan nan nan nan nan nan nan nan nan nan nan nan nan nan nan nan nan nan nan nan nan nan nan -0 -0 -0 -0 -0 -0 -0 -0 -0 -0 -0 -0 -0 -0 -0 -0 -0 -0 -0 -0
-0 -0 -0 -0 -0 -0 -0 -0 -0 -0 -0 -0 nan nan nan nan nan nan nan nan nan nan nan nan nan nan nan nan nan nan nan nan nan nan nan nan nan nan nan nan nan nan nan nan nan nan nan nan nan nan nan nan nan nan nan nan nan nan nan nan nan nan nan nan nan nan -0 -0 -0 -0 -0 -0 -0 -0 -0 -0 -0 -0 -0 -0 -0 -0 -0 -0 -0 -0
-0 -0 -0 -0 -0 -0 -0 -0 -0 -0 -0 -0 -0 -0 nan nan nan nan nan nan nan nan nan nan nan nan nan nan nan nan nan nan nan nan nan nan nan nan nan nan nan nan nan nan nan nan nan nan nan nan nan nan nan nan nan nan nan nan nan nan nan nan nan nan nan -0 -0 -0 -0 -0 -0 -0 -0 -0 -0 -0 -0 -0 -0 -0 -0 -0 -0 -0 -0 -2
nan nan nan -0 -0 nan -0 -0 -0 -0 -0 -0 -0 -0 nan nan nan nan nan nan nan nan nan nan nan nan nan nan nan nan nan nan nan nan nan nan nan nan nan nan nan nan nan nan nan nan nan nan nan nan nan nan nan nan nan nan nan nan nan nan nan nan nan -0 -0 -0 -0 -0 -0 -0 -0 -0 -0 -0 -0 -0 -0 -0 -0 -0 -0 -0 -0 -0 -0 nan
nan nan nan nan nan nan nan nan nan nan -0 -0 nan nan nan nan nan nan nan nan nan nan nan nan nan nan nan nan nan nan nan nan nan nan nan nan nan nan nan nan nan nan nan nan nan nan nan nan nan nan nan nan nan nan nan nan nan nan nan nan nan nan nan nan nan -3 -0 -0 -0 -0 -0 -0 -0 -0 -0 -0 -0 -0 -0 -0 -0 -0 nan nan nan nan
nan nan nan nan nan nan nan nan nan nan nan nan nan nan nan nan nan nan nan nan nan nan nan nan nan nan nan nan nan nan nan nan nan nan nan nan nan nan nan nan nan nan nan nan nan nan nan nan nan nan nan nan nan nan nan nan nan nan nan nan nan nan nan nan nan nan nan nan -10 -10 -11 -6 -0 -0 -0 -0 -0 -0 -0 -0 -0 -0 -9 nan nan -7
nan nan nan nan nan nan nan nan nan nan nan nan nan nan nan nan nan nan nan nan nan nan nan nan nan nan nan nan nan nan nan nan nan nan nan nan nan nan nan nan nan nan nan nan nan nan nan nan nan nan nan nan nan nan nan nan nan nan nan nan nan nan nan nan nan nan nan nan nan nan nan nan -11 -11 -3 -0 -0 -0 -0 -0 -0 -0 -0 nan nan -0
nan nan nan nan nan nan nan nan nan nan nan nan nan nan nan nan nan nan nan nan nan nan nan nan nan nan nan nan nan nan nan nan nan nan nan nan nan nan nan nan nan nan nan nan nan nan nan nan nan nan nan nan nan nan nan nan nan nan nan nan nan nan nan nan nan nan nan nan nan nan nan nan nan nan nan -7 -0 -0 -0 -0 -0 -0 -0 -4 -4 -0
nan nan nan nan nan nan nan nan nan nan nan nan nan nan nan nan nan nan nan nan nan nan nan nan nan nan nan nan nan nan nan nan nan nan nan nan nan nan nan nan nan nan nan nan nan nan nan nan nan nan nan nan nan nan nan nan nan nan nan nan nan nan nan nan nan nan nan nan nan nan nan nan nan nan nan nan -4 -4 -0 -0 -0 -0 -2 -3 -3 -2
nan nan nan nan nan nan nan nan nan nan nan nan nan nan nan nan nan nan nan nan nan nan nan nan nan nan nan nan nan nan nan nan nan nan -0 nan nan nan nan nan nan nan nan nan nan nan nan nan nan nan nan nan nan nan nan nan nan nan nan nan nan nan nan nan nan nan nan nan nan nan nan nan nan nan nan nan nan nan nan -7 -7 -2 -9 -2 -2 -3
nan nan nan nan nan nan nan nan nan nan nan nan nan nan nan nan nan nan nan nan nan nan nan nan nan nan nan nan nan nan nan nan nan nan nan nan nan nan nan nan nan nan nan nan nan nan nan nan nan nan nan nan nan nan nan nan nan nan nan nan nan nan nan nan nan nan nan nan nan nan nan nan nan nan nan nan nan nan nan nan nan nan -7 -2 -2 -1
nan nan nan nan nan nan nan nan nan nan nan nan nan nan nan nan nan nan nan nan nan nan nan nan nan nan nan nan nan nan nan nan nan nan nan nan nan nan nan nan nan nan nan nan nan nan nan nan nan nan nan nan nan nan nan nan nan nan nan nan nan nan nan nan nan nan nan nan nan nan nan nan nan nan nan nan nan nan nan nan nan nan nan nan nan -0
nan nan nan nan nan nan nan nan nan nan nan nan nan nan nan nan nan nan nan nan nan nan nan nan nan nan nan nan nan nan nan nan nan nan nan nan nan nan nan nan nan nan nan nan nan nan nan nan nan nan nan nan nan nan nan nan nan nan nan nan nan nan nan nan nan nan nan nan nan nan nan nan nan nan nan nan nan nan nan nan nan nan nan nan nan nan
nan nan nan nan nan nan nan nan nan nan nan nan nan nan nan nan nan nan nan nan nan nan nan nan nan nan nan nan nan nan nan nan nan nan -0 -0 nan nan nan nan nan nan nan nan nan nan nan nan nan nan nan nan nan nan nan nan nan nan nan nan nan nan nan nan nan nan nan nan nan nan nan nan nan nan nan nan nan nan nan nan nan nan nan nan nan nan
nan nan nan nan nan nan nan nan nan nan nan nan nan nan nan nan nan nan nan nan nan nan nan nan nan nan nan nan nan nan nan nan nan nan nan nan nan nan nan nan nan nan nan nan nan nan nan nan nan nan nan nan nan nan nan nan nan nan nan nan nan nan nan nan nan nan nan nan nan nan nan nan nan nan nan nan nan nan nan nan nan nan nan nan nan nan
nan nan nan nan nan nan nan nan nan nan nan nan nan nan nan nan nan nan nan nan nan nan nan nan nan nan nan nan nan nan nan nan nan nan nan nan nan nan nan nan nan nan nan nan nan nan nan nan nan nan nan nan nan nan nan nan nan nan nan nan nan nan nan nan nan nan nan nan nan nan nan nan nan nan nan nan nan nan nan nan nan nan nan nan nan nan
nan nan nan nan nan nan nan nan nan nan nan nan nan nan nan nan nan nan nan nan nan nan nan nan nan nan nan nan nan nan nan nan nan nan nan nan nan nan nan nan nan nan nan nan nan nan nan nan nan nan nan nan nan nan nan nan nan nan nan nan nan nan nan nan nan nan nan nan nan nan nan nan nan nan nan nan nan nan nan nan nan nan nan nan nan nan
nan nan nan nan nan nan nan nan nan nan nan nan nan nan nan nan nan nan nan nan nan nan nan nan nan nan nan nan nan nan nan nan nan nan nan nan nan nan nan nan nan nan nan nan nan nan nan nan nan nan nan nan nan nan nan nan nan nan nan nan nan nan nan nan nan nan nan nan nan nan nan nan nan nan nan nan nan nan nan nan nan nan nan nan nan nan
nan nan nan nan nan nan nan nan nan nan nan nan nan nan nan nan nan nan nan nan nan nan nan nan nan nan nan nan nan nan nan nan nan nan nan nan -0 -0 nan nan nan nan nan nan nan nan nan nan nan nan nan nan nan nan nan nan nan nan nan nan nan nan nan nan nan nan nan nan nan nan nan nan nan nan nan nan nan nan nan nan nan nan nan nan nan nan
nan nan nan nan nan nan nan nan nan nan nan nan nan nan nan nan nan nan nan nan nan nan nan nan nan nan nan nan nan nan nan nan nan nan nan nan nan nan nan nan nan nan nan nan nan nan nan nan nan nan nan nan nan nan nan nan nan nan nan nan nan nan nan nan nan nan nan nan nan nan nan nan nan nan nan nan nan nan nan nan nan nan nan nan nan nan
nan nan nan nan nan nan nan nan nan nan nan nan nan nan nan nan nan nan nan nan nan nan nan nan nan nan nan nan nan nan nan nan nan nan nan nan nan nan nan nan nan nan nan nan nan nan nan nan nan nan nan nan nan nan nan nan nan nan nan nan nan nan nan nan nan nan nan nan nan nan nan nan nan nan nan nan nan nan nan nan nan nan nan nan nan nan
nan nan nan nan nan nan nan nan nan nan nan nan nan nan nan nan nan nan nan nan nan nan nan nan nan nan nan nan nan nan nan nan nan nan nan nan nan nan nan nan nan nan nan nan nan nan nan nan nan nan nan nan nan nan nan nan nan nan nan nan nan nan nan nan nan nan nan nan nan nan nan nan nan nan nan nan nan nan nan nan nan nan nan nan nan nan
nan nan nan nan nan nan nan nan nan nan nan nan nan nan nan nan nan nan nan nan nan nan nan nan nan nan nan nan nan nan nan nan nan nan nan nan nan nan nan nan nan nan nan nan nan nan nan nan nan nan nan nan nan nan nan nan nan nan nan nan nan nan nan nan nan nan nan nan nan nan nan nan nan nan nan nan nan nan nan nan nan nan nan nan nan nan
nan nan nan nan nan nan nan nan nan nan nan nan nan nan nan nan nan nan nan nan nan nan nan nan nan nan nan nan nan nan nan nan nan nan nan nan nan nan nan nan nan nan nan nan nan nan nan -0 -0 -0 -0 nan nan nan nan nan nan nan nan nan nan nan nan nan nan nan nan nan nan nan nan nan nan nan nan nan nan nan nan nan nan nan nan nan nan nan
nan nan nan nan nan nan nan nan nan nan nan nan nan nan nan nan nan nan nan nan nan nan nan nan nan nan nan nan nan nan nan nan nan nan nan nan nan nan nan nan nan nan nan nan nan nan nan nan nan nan -0 -0 nan nan nan nan nan nan nan nan nan nan nan nan nan nan nan nan nan nan nan nan nan nan nan nan nan nan nan nan nan nan nan nan nan nan
Wind_Speed
0 1 1 2 3 3 3 5 5 4 4 3 3 3 3 3 2 2 1 1 2 3 3 4 5 7 8 10 12 13 14 14 14 13 13 12 11 11 10 10 10 10 9 9 9 8 8 7 7 7 7 7 7 7 8 8 9 9 9 9 9 9 9 9 10 10 10 10 10 10 10 9 9 8 7 7 6 5 5 4 4 3 3 2 1 1
0 1 1 2 3 3 2 5 5 5 4 4 4 4 4 3 2 1 1 1 1 0 2 3 5 6 7 8 11 14 14 14 14 13 13 12 11 11 10 10 10 10 9 9 9 8 8 7 7 7 6 6 6 6 6 6 7 7 8 8 8 8 8 8 8 9 9 9 9 9 9 9 8 7 7 6 5 5 4 4 3 3 2 2 1 0
1 1 1 3 3 3 3 4 5 5 5 5 4 4 5 4 3 1 1 1 1 2 1 0 2 4 6 7 10 13 14 14 13 13 13 12 11 11 10 10 10 10 10 9 9 8 8 7 7 7 6 6 6 5 5 5 5 5 6 6 7 8 8 8 8 8 8 9 9 9 9 9 8 7 6 5 5 4 4 3 3 2 2 1 0 1
2 2 2 2 3 4 3 4 4 4 4 4 4 4 5 4 2 2 1 2 2 2 2 2 1 1 3 5 8 12 13 13 13 13 12 12 11 11 10 10 10 10 10 9 9 8 8 7 7 7 7 7 6 6 6 6 6 6 7 8 9 10 11 11 11 10 10 10 10 9 9 8 7 6 5 5 4 4 3 3 2 2 1 1 0 1
2 2 2 2 2 3 3 3 3 3 3 3 3 3 3 2 2 2 2 2 2 2 2 3 3 2 2 2 6 10 12 12 12 12 12 12 11 11 10 10 10 10 10 9 9 8 8 7 7 7 7 7 7 7 8 8 9 9 10 11 12 12 12 12 11 11 11 10 9 8 8 7 6 6 5 4 4 3 3 2 2 1 0 0 1 2
2 2 2 2 1 1 1 1 2 2 2 2 2 2 2 2 2 2 2 2 2 2 2 2 2 2 2 2 4 9 11 12 12 12 12 12 11 11 11 10 10 10 9 9 9 9 8 8 7 7 7 7 7 8 8 9 9 10 10 11 11 11 11 11 11 10 10 9 8 8 7 6 6 5 5 4 3 3 2 1 0 0 1 1 2 2
1 1 1 1 1 1 0 1 2 3 2 2 2 2 2 2 2 2 2 2 2 2 1 2 2 2 3 3 3 6 8 10 11 11 11 11 11 11 10 10 10 9 9 9 9 8 8 8 7 7 7 7 7 7 8 8 9 9 10 10 10 10 10 10 10 9 9 8 7 7 6 6 5 4 4 3 3 2 1 1 1 1 2 2 2 3
1 1 1 1 1 1 0 1 2 3 3 3 2 2 2 2 2 2 2 2 2 1 1 1 2 2 3 3 3 3 4 6 7 8 9 9 9 9 9 10 9 9 9 8 8 8 8 7 7 7 7 7 7 7 8 8 8 9 9 9 9 9 9 9 8 8 7 7 6 6 5 5 4 3 3 2 2 1 1 2 2 3 3 3 4 4
2 2 2 2 2 1 1 1 2 3 3 3 3 3 3 2 2 2 2 2 1 1 1 1 2 2 2 3 3 3 3 4 4 4 4 4 5 6 7 9 9 9 8 8 7 7 7 7 7 7 7 7 7 8 8 8 8 8 8 8 8 8 8 7 7 7 6 6 5 5 4 4 3 2 2 1 1 1 2 3 3 4 4 5 5 5
2 3 3 2 2 1 1 2 2 2 2 2 2 2 2 3 3 3 2 1 1 1 1 1 2 2 2 2 2 3 3 4 6 6 6 5 4 4 4 5 6 7 7 7 7 7 7 6 6 7 7 7 8 8 8 8 8 8 8 8 8 7 7 6 6 5 5 4 4 4 3 2 2 1 0 0 1 2 3 3 4 5 5 5 6 6
2 2 2 2 1 1 1 1 1 1 1 1 1 0 0 2 3 4 4 3 1 1 1 2 2 1 1 1 2 2 3 3 5 6 7 7 7 6 5 4 3 3 4 5 6 6 6 6 6 7 7 7 8 8 9 9 9 8 8 7 7 6 6 5 4 4 4 4 3 3 2 2 1 1 1 2 2 3 4 4 5 5 6 6 6 6
2 2 2 1 1 1 1 1 1 1 1 1 1 1 2 1 2 3 5 4 4 2 1 1 1 2 1 1 1 2 2 2 3 3 4 5 5 5 4 4 4 3 2 1 2 2 3 4 5 5 5 6 7 8 9 9 9 8 7 7 6 5 5 4 4 3 3 3 3 3 2 2 1 2 2 3 4 4 5 5 5 6 6 6 7 7
1 1 2 2 2 2 2 1 1 1 2 3 4 4 4 2 1 1 2 3 3 2 2 1 1 1 1 1 1 1 1 2 2 2 2 3 3 3 3 2 2 2 2 2 2 3 2 2 3 4 4 6 7 8 9 9 8 8 7 6 5 5 4 4 4 3 3 3 3 3 3 2 2 3 3 4 4 5 5 5 6 6 6 7 7 7
1 1 2 2 2 3 3 3 3 3 4 4 4 3 2 2 2 1 2 2 2 1 1 2 1 1 1 1 1 1 1 1 1 2 2 2 2 2 2 1 1 1 1 2 2 2 3 3 2 3 5 6 7 8 9 8 8 8 7 6 5 5 4 4 4 4 4 4 4 4 3 3 3 4 4 5 5 5 5 6 6 6 7 7 7 7
2 2 2 2 2 2 3 3 3 3 3 2 1 1 2 2 2 2 2 2 2 1 1 2 2 1 1 1 1 1 1 0 1 2 2 1 2 2 2 1 1 1 1 1 1 1 2 2 2 2 3 5 6 6 7 7 7 7 7 6 6 5 5 5 5 5 5 5 5 5 4 4 4 4 5 5 5 5 5 6 6 6 7 7 7 7
2 2 2 3 2 2 2 2 2 2 1 1 1 1 2 2 3 3 3 3 2 2 2 2 1 1 0 1 1 1 1 0 1 2 2 1 1 2 2 1 0 0 1 1 1 0 1 1 1 1 2 3 4 5 5 6 6 7 6 6 6 6 6 6 6 6 6 6 6 6 5 5 5 5 5 5 5 5 5 5 6 6 7 7 7 7
2 2 2 2 2 2 2 2 2 1 1 1 1 1 2 3 3 3 3 3 3 2 2 2 2 1 1 0 1 1 1 1 1 2 2 2 1 1 2 1 0 1 1 1 0 0 1 1 1 1 1 1 2 4 5 6 6 6 6 6 6 6 6 6 6 6 6 7 6 6 6 6 5 5 6 6 5 5 5 5 6 6 7 7 7 7
1 2 2 2 2 2 2 2 2 1 2 2 1 1 1 1 2 2 3 3 3 3 3 3 2 2 1 1 1 1 1 0 1 2 2 2 1 1 1 1 0 1 1 1 0 0 1 1 1 1 1 2 3 4 6 6 6 6 7 7 7 7 7 7 7 7 7 7 7 7 7 6 6 6 6 6 5 5 5 5 6 6 6 7 7 7
1 1 1 2 1 1 1 2 2 2 2 2 2 2 2 1 1 2 3 3 3 3 3 3 3 2 1 1 1 1 1 1 1 2 2 2 1 1 1 1 0 0 1 1 0 0 0 1 1 2 2 3 4 5 6 7 7 7 7 7 7 7 7 7 7 7 8 8 8 8 7 7 6 6 6 6 6 5 6 6 6 6 6 7 7 7
1 1 1 1 1 1 1 2 3 3 3 3 3 3 2 2 2 2 2 3 3 2 2 3 3 2 1 1 1 1 1 1 1 2 3 2 1 1 1 1 0 1 2 1 0 1 1 1 1 2 3 4 5 6 7 8 8 8 8 8 8 7 7 7 8 8 8 8 8 8 8 7 7 7 7 6 6 6 6 6 6 6 6 6 7 7
1 1 1 1 1 1 1 2 3 3 4 4 4 3 3 2 2 3 3 3 2 2 2 3 2 1 1 1 1 1 1 0 1 2 2 2 1 1 1 1 0 1 3 1 1 1 1 1 1 1 3 5 6 7 8 8 8 8 8 8 8 8 8 8 8 8 9 9 9 8 8 8 7 7 7 7 7 6 6 6 6 6 6 6 6 6
1 1 1 1 1 1 1 1 2 4 5 5 4 4 3 3 4 4 3 3 3 3 3 2 1 1 1 1 1 1 1 1 1 2 2 2 2 1 1 0 0 1 3 2 1 0 1 1 1 2 3 5 7 8 8 9 9 9 9 9 8 8 8 8 8 9 9 9 9 9 8 8 8 8 8 7 7 7 7 6 6 6 5 5 5 6
1 1 1 1 1 1 1 1 2 3 4 4 4 3 2 3 4 4 4 4 3 2 2 2 2 2 2 1 1 1 1 1 1 0 2 3 2 1 1 0 0 1 2 1 0 0 1 1 1 2 3 5 7 8 9 9 9 9 9 9 9 8 8 8 9 9 9 9 9 9 9 9 8 8 8 8 8 7 7 7 6 6 5 5 5 5
1 2 2 1 1 1 0 0 1 2 2 2 2 2 2 2 2 2 2 2 3 3 3 3 2 2 1 1 1 1 1 1 0 0 1 2 2 1 1 1 1 2 2 1 0 1 1 1 1 1 2 4 6 7 8 9 9 9 9 9 9 9 9 9 9 9 9 9 9 9 9 9 9 9 9 8 8 8 7 7 7 6 6 5 5 5
1 1 1 1 1 1 1 1 2 3 3 3 3 3 4 4 4 4 4 4 4 3 3 2 2 1 1 1 1 1 1 0 0 0 1 1 1 1 1 1 1 1 2 0 0 1 1 1 1 0 1 2 4 5 7 8 8 9 9 9 9 9 9 9 9 9 9 9 9 9 9 9 9 9 9 9 9 8 8 8 7 7 6 6 6 6
3 2 2 1 1 1 1 2 4 5 5 5 4 4 4 4 4 4 4 3 3 3 3 2 2 1 0 0 0 0 1 1 1 1 1 1 1 1 1 1 1 1 1 0 0 0 1 1 1 1 0 1 2 4 5 6 7 8 8 9 9 9 9 9 10 10 10 10 10 10 10 10 10 9 9 9 9 9 9 8 8 7 7 7 7 7
8 7 6 5 4 3 3 4 5 6 7 7 6 5 5 4 4 3 3 3 3 4 4 3 3 2 1 0 1 1 1 1 1 1 1 0 0 1 1 1 0 0 1 1 0 1 1 1 1 1 0 0 1 2 4 5 6 7 7 8 8 9 10 10 10 10 10 10 10 10 10 10 10 10 10 10 10 10 10 9 9 8 8 7 7 6
11 11 10 8 7 5 5 5 6 7 7 8 8 7 5 4 3 3 3 3 4 4 3 3 3 2 2 1 1 0 0 1 2 2 1 1 0 0 1 1 0 0 0 1 1 1 1 1 1 1 1 1 1 2 3 3 4 4 5 6 8 9 10 10 10 10 10 10 10 10 9 9 9 10 10 10 10 10 10 10 10 9 8 7 5 4
10 11 11 10 9 8 6 6 6 6 7 7 7 6 4 2 2 3 3 3 3 3 3 3 2 2 1 1 0 1 1 1 2 3 2 1 0 0 1 1 0 0 0 0 0 1 1 1 1 0 1 1 1 1 1 1 2 2 3 4 6 7 9 9 10 10 10 9 9 9 9 9 9 10 10 10 10 11 11 11 10 9 7 5 3 2
7 8 9 9 9 8 7 6 5 6 7 6 5 4 2 1 1 1 3 3 4 4 4 3 2 2 1 1 0 0 1 1 2 3 3 2 1 1 1 1 0 0 0 0 0 1 1 1 1 0 0 0 0 0 0 1 1 1 1 2 3 4 5 6 7 8 8 9 9 9 9 9 9 10 10 10 10 11 11 11 9 7 3 3 2 2
4 5 5 5 6 6 5 5 5 5 6 6 5 4 3 2 1 1 2 3 3 3 3 3 2 2 1 1 1 1 1 1 2 3 4 2 1 1 1 1 1 0 1 0 1 1 1 1 1 1 0 0 0 0 0 0 1 1 1 1 1 1 1 1 3 4 6 6 7 8 8 9 9 10 10 10 10 11 11 11 9 6 3 2 2 3
3 3 3 3 3 3 4 4 4 4 4 4 4 3 3 2 2 1 1 2 2 2 2 2 2 2 1 1 1 1 1 1 2 3 4 2 1 1 1 1 1 1 0 1 1 1 1 0 0 1 0 0 0 0 0 0 0 0 1 1 0 1 2 2 1 0 1 3 4 5 6 8 8 9 10 10 10 11 11 11 10 7 4 3 3 3
3 2 2 2 3 3 3 3 3 3 3 3 3 3 3 2 2 2 1 1 1 1 2 2 2 2 1 1 1 1 1 0 2 4 5 2 1 1 1 1 1 1 1 0 1 1 1 0 0 0 1 0 0 0 0 0 1 0 1 0 0 1 1 2 1 1 1 0 0 1 2 4 5 6 8 9 10 10 11 11 10 8 5 4 4 4
3 3 2 2 2 2 2 2 2 2 2 2 2 2 2 2 2 2 2 1 1 1 1 2 2 2 2 1 1 1 1 1 3 5 5 3 2 2 2 2 2 2 2 1 0 0 0 0 0 1 1 0 0 0 0 1 1 0 0 1 0 0 1 1 1 1 1 1 1 1 1 1 1 2 4 5 7 9 10 11 11 10 8 6 5 5
2 2 2 2 2 2 2 2 2 2 2 2 2 2 2 2 2 2 2 1 1 1 1 1 1 2 2 2 1 1 1 1 3 5 5 3 2 2 2 2 2 3 2 2 1 1 0 0 0 0 0 0 0 1 1 1 1 0 0 0 0 0 0 0 0 0 0 0 1 1 1 1 1 0 1 2 3 5 8 10 11 11 10 9 7 6
2 2 1 1 1 1 1 1 1 1 1 1 1 1 1 1 1 1 1 1 1 1 1 1 1 1 1 1 1 1 0 1 3 5 5 3 2 2 1 2 3 3 3 2 2 1 1 1 0 0 0 0 0 1 1 1 1 1 1 1 0 0 0 0 0 0 0 1 1 1 0 0 0 0 0 0 1 2 4 6 8 9 9 10 9 8
1 1 1 0 0 0 0 0 0 0 0 0 1 1 1 1 1 1 1 1 1 1 1 1 1 1 1 0 0 0 0 1 2 4 5 4 2 1 1 1 2 3 3 2 2 2 1 1 1 0 0 1 1 1 0 1 1 1 2 1 1 1 1 0 0 0 0 1 1 1 1 1 1 1 1 0 0 0 1 2 4 5 6 8 9 9
1 1 1 0 0 0 0 0 1 1 0 0 1 1 1 1 1 1 1 1 1 1 1 1 1 1 2 1 1 1 1 1 2 4 5 4 3 1 1 1 2 3 2 2 2 2 2 2 1 1 1 1 1 1 0 0 1 2 2 1 1 1 1 1 1 1 1 1 1 2 2 1 1 0 0 0 0 0 0 1 1 2 3 4 6 7
1 1 1 1 1 1 1 1 1 1 1 1 1 1 1 1 1 1 1 0 1 1 1 1 1 1 1 1 1 1 1 1 1 3 4 4 3 2 1 1 2 2 2 1 1 1 2 2 2 2 1 1 1 1 1 0 1 1 1 1 2 2 2 1 1 1 1 1 2 2 2 1 1 0 0 0 1 1 2 2 2 2 2 2 3 5
2 2 2 2 2 2 2 1 1 1 1 1 1 1 1 1 1 0 0 0 0 1 1 0 0 0 0 1 1 1 1 0 1 2 3 4 3 3 2 2 2 2 2 1 1 1 1 1 1 1 1 1 1 1 1 1 1 1 2 2 3 3 3 2 2 1 1 1 2 2 2 1 1 1 1 1 1 2 3 3 2 2 3 3 3 4
2 2 2 2 1 1 1 1 1 1 1 1 1 1 0 0 0 0 0 0 0 0 0 1 1 1 0 0 0 1 1 0 1 1 1 2 3 3 3 2 2 2 2 2 1 1 2 2 1 1 1 1 0 0 0 1 2 2 3 3 3 2 2 2 2 1 1 1 1 2 2 2 2 2 2 2 2 2 2 2 2 2 3 3 4 4
3 3 2 1 1 1 1 1 1 1 1 1 1 1 1 1 1 1 1 1 1 0 1 1 1 1 2 2 1 1 1 0 1 1 1 1 2 3 3 3 2 2 2 2 2 2 2 2 2 2 2 1 1 1 1 1 2 2 3 3 2 1 1 2 2 1 1 2 2 2 2 3 3 3 3 3 2 2 2 2 3 4 4 3 3 4
3 3 2 1 1 1 1 1 1 1 1 1 1 2 2 1 1 1 1 1 1 1 1 1 1 1 2 2 2 2 2 1 1 1 2 2 2 3 4 4 3 3 3 2 2 2 2 2 3 3 2 2 2 3 3 2 2 2 3 3 2 2 2 2 2 2 2 2 2 2 2 3 2 2 2 2 2 2 2 3 4 5 5 4 3 3
3 2 1 1 1 1 1 1 1 1 1 2 2 2 2 2 2 1 1 1 1 1 1 1 1 1 1 2 2 1 1 1 1 1 2 3 4 4 4 4 4 4 4 3 3 2 1 2 3 3 2 2 3 4 5 4 3 3 3 3 3 3 3 1 2 2 2 2 2 2 2 2 2 1 2 2 2 2 2 3 3 4 4 3 3 3
1 1 1 1 1 1 2 2 2 2 2 2 2 2 1 2 2 2 2 1 1 1 1 1 1 1 1 2 1 1 1 1 1 1 1 3 4 5 5 4 4 4 4 4 4 3 3 3 3 2 2 2 3 4 5 5 5 4 4 4 4 5 4 1 1 2 2 3 3 2 2 2 1 1 2 3 3 3 3 3 4 4 4 3 3 4
1 1 1 1 2 2 3 2 2 2 2 2 3 2 2 2 2 2 2 2 1 1 1 1 2 2 2 1 1 1 1 1 1 1 1 2 2 3 4 4 4 4 3 4 4 4 4 3 2 2 2 2 4 5 6 6 6 5 5 5 5 5 5 4 3 3 3 3 3 3 3 2 2 2 3 4 4 4 4 4 4 5 5 4 4 4
2 2 2 2 2 2 2 2 2 2 2 3 3 2 2 2 2 2 2 2 2 1 1 2 2 3 4 2 1 1 1 2 1 1 2 2 2 2 3 3 3 3 3 3 3 3 4 3 3 2 3 4 5 6 6 6 6 6 6 5 5 5 5 5 5 5 4 4 3 3 4 3 2 3 4 4 4 4 4 4 5 5 5 5 5 5
4 4 3 3 3 3 3 3 3 3 3 4 3 2 2 2 2 3 2 2 2 2 2 2 3 4 5 4 3 2 3 3 2 2 2 2 2 2 2 2 2 3 3 3 4 4 4 4 4 4 5 5 6 6 6 6 6 6 6 5 5 6 6 6 6 5 5 5 4 4 4 4 4 4 5 4 4 5 5 5 5 5 5 5 5 5
4 4 4 3 3 3 4 3 3 4 4 4 4 3 2 2 3 4 2 2 2 3 3 3 4 4 5 4 4 4 4 4 3 2 1 2 2 2 2 2 2 2 2 3 3 4 4 5 6 7 7 8 7 7 7 6 6 6 5 5 5 6 6 6 6 5 5 5 5 5 5 5 5 5 4 5 6 6 6 6 5 5 5 5 5 6
4 4 3 3 4 4 4 4 4 4 5 5 4 3 2 2 2 3 2 2 2 3 4 4 4 5 5 5 5 4 5 4 3 3 2 2 2 2 3 3 3 2 2 2 2 3 3 4 6 9 11 12 11 9 8 7 6 5 5 6 6 6 6 6 5 5 5 5 5 5 5 5 5 5 4 5 6 7 7 6 6 6 5 5 5 6
4 4 4 4 4 4 4 4 4 4 5 5 4 4 3 2 2 2 2 2 3 3 4 4 5 5 5 5 5 5 5 5 5 4 4 3 3 3 3 3 3 3 2 2 2 2 2 2 3 5 9 14 16 15 10 8 7 6 6 6 6 6 6 6 5 5 5 5 5 5 5 5 5 5 5 5 6 7 7 7 6 6 5 5 5 6
Wind_Direction
82 132 173 187 187 189 201 198 194 191 192 191 192 194 191 186 184 186 191 193 192 189 183 186 185 180 169 160 155 153 150 147 144 141 137 134 132 130 128 126 124 122 121 119 118 117 116 118 120 122 125 129 133 137 142 145 149 151 154 154 153 151 151 151 152 152 150 151 148 142 135 130 126 123 121 122 124 126 128 130 130 128 125 121 120 129
100 123 169 192 197 201 206 199 197 195 192 189 189 187 182 172 159 128 66 44 44 173 190 188 182 176 168 161 155 152 150 147 143 140 136 133 132 130 129 127 125 123 121 118 115 112 110 108 109 111 114 119 125 133 141 148 155 160 163 159 155 151 146 147 147 146 143 141 135 128 123 121 120 120 121 124 126 128 128 129 126 124 121 119 121 206
164 164 185 194 200 205 206 200 201 201 196 188 184 180 175 165 153 126 79 54 35 19 356 221 173 165 160 157 153 151 149 146 142 139 135 133 132 130 129 128 126 124 122 119 117 113 110 107 106 105 105 106 110 115 121 129 137 144 145 139 133 127 121 118 116 115 113 112 110 108 108 110 112 114 117 120 121 121 118 115 111 107 104 104 98 285
172 182 188 190 201 209 210 198 196 196 195 181 174 172 169 159 145 118 89 74 57 38 15 4 28 115 139 147 149 149 148 144 141 138 135 134 133 132 131 130 129 127 126 124 121 118 115 112 109 106 104 102 99 97 97 97 98 100 104 104 105 105 103 99 98 96 93 94 95 96 98 101 103 104 104 105 105 105 103 100 95 89 82 61 317 294
177 185 180 181 198 211 215 196 185 180 174 161 157 156 153 139 123 106 88 76 68 56 34 13 13 29 76 120 142 146 145 143 140 138 136 135 135 134 134 133 133 131 130 129 126 124 120 118 115 112 109 105 100 95 92 90 89 90 92 93 96 98 99 98 96 95 93 93 93 93 94 94 94 93 89 88 87 88 89 90 90 87 71 322 297 291
170 176 166 172 179 190 205 190 177 166 152 142 135 129 115 107 104 100 94 83 75 64 46 25 15 15 24 60 131 142 142 140 138 137 137 137 138 138 139 138 137 136 135 133 131 129 127 125 123 121 118 113 108 103 98 95 94 94 94 96 97 98 99 98 97 96 95 95 94 93 92 90 87 84 79 75 71 67 65 66 72 229 253 266 275 279
138 143 132 136 130 121 126 182 181 176 165 151 133 116 98 91 86 85 83 81 78 77 70 49 30 20 18 27 91 127 136 136 136 136 138 140 142 143 144 144 143 141 139 138 137 136 136 136 135 134 131 126 120 114 107 103 101 100 100 100 100 100 100 100 100 100 99 99 98 96 93 90 86 82 75 67 57 45 22 343 295 270 259 257 260 263
140 144 145 137 127 118 128 183 191 190 183 171 158 144 125 102 86 78 74 68 64 66 84 75 55 36 26 22 41 81 116 126 129 132 136 140 145 148 151 150 149 147 145 145 145 146 147 149 150 150 148 142 136 129 121 115 111 108 106 105 105 104 104 105 105 105 105 104 103 101 99 94 89 82 74 60 42 14 337 306 287 275 266 260 257 255
160 166 175 175 169 164 166 181 192 195 194 186 176 167 158 147 131 108 93 70 47 31 46 92 86 65 37 23 29 52 87 98 103 107 115 127 140 150 156 156 155 153 152 153 155 158 161 165 166 166 164 160 154 146 136 127 121 117 114 113 112 111 111 111 111 111 111 111 109 108 105 101 95 87 74 50 3 321 300 288 280 274 269 264 259 255
165 172 177 182 181 174 169 169 179 190 198 189 178 171 170 162 157 150 142 117 55 18 8 54 85 87 60 29 26 41 73 85 83 79 77 76 87 107 126 140 151 157 159 163 168 172 178 180 182 181 178 173 166 157 144 136 131 126 124 123 121 120 119 118 118 118 119 120 119 118 117 113 110 104 85 300 286 280 276 273 271 269 267 264 261 257
166 173 170 171 170 162 137 141 149 151 144 123 98 69 213 172 168 166 167 162 150 87 21 28 43 61 65 34 21 25 48 71 69 63 59 57 60 64 61 68 92 132 158 168 176 182 186 189 190 189 185 179 170 160 149 142 138 136 134 133 131 130 129 129 129 131 133 136 137 138 139 142 155 206 258 267 268 268 266 264 263 262 261 260 258 256
169 170 167 165 162 152 124 100 94 115 138 145 160 193 219 206 184 177 176 169 162 152 126 62 41 34 32 17 7 12 32 67 69 58 45 44 41 38 38 41 44 49 77 109 148 168 178 181 181 179 176 172 165 157 150 148 146 146 146 145 144 144 145 147 150 153 157 160 163 167 173 190 219 247 263 266 266 265 262 260 257 256 255 254 253 252
164 164 167 175 178 175 161 154 151 162 179 189 196 199 199 189 178 171 168 152 146 142 134 111 79 50 34 24 11 5 22 68 78 72 55 40 28 21 13 24 33 38 42 45 45 48 67 100 127 140 142 148 150 150 149 152 154 156 158 159 161 163 167 171 176 181 184 187 190 194 202 216 236 253 262 264 264 262 260 257 254 251 249 247 246 245
164 164 173 186 192 190 181 179 181 188 197 203 204 197 166 140 130 128 119 99 88 80 90 98 92 71 43 35 23 11 4 59 88 85 67 48 29 15 358 7 24 39 51 73 65 48 37 41 64 95 108 123 135 144 150 156 161 166 169 173 177 182 187 193 197 200 202 205 207 210 215 226 239 252 260 261 260 259 257 254 251 248 244 241 239 239
173 174 187 198 202 199 192 192 197 200 200 194 177 80 63 98 132 148 138 115 97 80 83 86 80 67 60 55 38 18 350 11 117 116 101 71 40 19 358 355 8 35 55 97 97 62 25 19 30 61 82 103 121 137 150 162 171 176 179 184 190 195 201 205 208 211 212 213 215 217 221 229 240 249 256 257 257 255 253 251 248 245 240 236 233 232
175 182 196 202 205 203 194 197 201 202 181 122 102 109 124 145 163 169 156 137 129 124 124 124 118 109 120 95 75 46 351 338 138 138 135 111 66 31 4 347 355 108 89 113 114 83 4 355 358 22 55 100 123 139 151 166 177 184 189 195 201 206 210 213 216 218 219 220 221 223 226 232 239 247 252 253 252 250 249 247 245 241 236 231 227 225
179 192 204 207 208 203 185 186 183 170 130 118 125 144 157 165 169 168 153 140 139 149 161 160 161 170 202 163 86 63 18 352 129 137 143 134 93 43 11 351 237 177 158 161 131 36 344 345 356 8 15 127 161 166 169 177 186 194 201 207 211 215 219 221 223 225 226 226 226 227 228 232 237 243 247 248 247 245 244 243 241 238 232 226 221 219
187 197 206 211 208 193 165 168 164 147 130 136 135 123 109 132 149 154 152 150 158 170 180 181 177 171 172 190 147 73 26 347 145 142 150 160 127 62 28 3 310 218 197 199 190 37 351 341 324 288 258 220 204 195 191 194 199 205 211 215 219 222 224 226 229 231 232 231 231 230 229 231 234 238 240 241 240 239 239 239 237 233 228 220 215 211
194 198 208 215 201 170 158 173 173 167 161 160 151 136 110 97 122 147 159 167 175 181 183 188 187 179 172 183 136 76 19 304 185 163 172 182 153 75 33 12 331 237 227 210 171 70 356 322 305 287 263 238 224 215 210 209 211 214 217 220 222 225 227 230 233 235 236 235 234 232 229 229 230 232 234 233 232 233 234 235 234 230 224 216 210 205
203 207 211 191 157 149 182 193 189 181 175 165 155 147 145 141 152 164 172 177 179 177 170 186 189 185 175 155 100 71 13 307 203 181 184 184 160 81 31 10 315 221 222 209 138 55 332 318 302 282 265 246 233 224 218 217 217 218 220 222 224 227 229 232 235 237 238 237 235 232 229 227 227 227 227 227 226 227 229 230 230 226 222 213 205 200
207 212 204 166 150 167 207 203 191 179 168 155 149 147 153 157 170 181 182 176 173 173 176 191 187 169 139 115 94 73 12 271 192 182 181 189 182 126 59 23 283 224 220 207 155 84 315 303 296 275 258 242 233 227 222 221 220 221 222 224 226 228 231 233 235 236 237 237 235 231 228 226 224 224 223 221 221 222 225 227 226 224 218 210 202 197
224 210 182 174 188 208 223 196 181 173 164 160 163 167 169 174 183 188 185 181 181 186 192 181 125 81 75 83 81 66 21 313 208 175 156 199 207 186 94 54 261 228 226 215 173 82 303 286 276 260 247 239 234 229 225 224 224 224 225 226 228 229 231 233 235 236 236 235 233 230 226 224 222 220 219 217 217 219 223 224 223 221 215 209 203 198
327 328 335 241 235 246 255 187 168 166 164 170 176 179 174 181 186 187 182 180 173 157 122 93 79 75 81 86 85 80 62 357 340 144 156 203 210 191 102 103 197 218 229 217 148 2 305 281 270 261 254 242 236 231 227 226 226 226 227 228 229 230 231 232 234 234 234 233 231 228 225 222 220 218 216 214 215 217 220 222 221 218 213 209 205 202
339 334 330 305 282 275 307 148 148 146 139 123 100 76 61 90 102 103 100 112 106 100 97 97 94 86 72 87 95 96 86 46 352 261 185 206 204 172 102 131 205 219 227 199 34 345 308 282 264 259 267 249 241 235 230 228 227 227 228 229 229 230 231 232 233 233 233 231 229 226 223 220 218 216 214 212 211 213 217 219 219 217 213 211 210 210
354 343 330 304 265 226 191 158 142 132 119 106 97 89 84 83 82 80 75 80 90 101 115 121 124 113 52 59 85 110 117 95 278 237 190 199 198 167 122 165 208 222 227 172 35 345 296 268 248 233 259 257 249 242 236 232 230 229 228 229 230 231 231 232 233 233 232 230 227 224 221 219 217 215 213 211 210 210 213 215 216 215 212 212 214 216
68 65 66 70 98 151 165 150 140 133 128 122 118 115 111 105 99 94 91 100 116 129 137 152 168 175 114 23 311 211 149 146 198 235 210 179 174 167 143 174 213 250 264 297 329 296 268 248 219 183 165 271 266 258 249 241 234 231 229 230 232 233 233 233 234 233 231 228 225 222 220 218 217 215 213 211 208 207 208 210 211 211 211 211 214 218
59 59 61 66 76 94 118 128 131 131 131 130 131 132 128 123 118 116 122 142 152 157 163 181 188 186 151 197 234 220 151 164 192 217 238 213 178 163 138 142 175 278 294 286 271 249 250 244 228 200 177 304 292 278 263 251 242 236 234 236 236 236 235 234 233 232 230 226 224 221 219 218 218 216 214 211 208 206 205 206 207 208 209 210 212 216
53 52 52 56 63 76 93 108 120 127 132 135 138 140 139 137 140 149 164 165 166 169 179 189 188 181 178 200 223 259 279 215 198 193 208 226 224 169 107 108 119 280 293 287 271 245 244 247 247 260 290 289 286 280 274 264 256 250 251 248 244 240 236 233 231 229 226 224 222 220 219 219 219 218 216 212 209 206 204 203 204 206 207 208 207 207
48 47 45 46 49 56 69 87 106 119 127 133 137 138 134 136 154 164 164 160 164 174 189 190 181 164 160 177 261 302 260 221 189 175 179 190 204 142 95 96 121 215 272 296 274 237 224 227 226 251 288 284 285 291 296 298 294 290 286 265 252 243 236 231 227 224 222 221 220 219 219 219 220 219 216 213 210 207 204 203 203 204 205 201 192 180
41 41 41 38 38 40 46 54 75 98 110 112 110 102 77 64 109 145 143 155 167 181 191 186 173 150 134 115 73 274 243 199 170 164 175 187 190 145 110 120 156 208 224 229 236 232 223 195 166 146 255 295 299 311 332 345 343 334 316 283 258 241 232 226 223 220 218 218 217 217 218 219 220 219 216 213 210 207 205 203 202 199 187 177 167 169
42 43 41 36 34 36 39 38 45 60 77 76 70 58 44 39 50 112 140 162 174 183 185 177 169 161 154 144 158 200 236 173 157 165 183 190 178 132 132 141 154 200 255 240 220 222 238 186 134 118 104 42 13 38 57 30 13 347 316 295 259 225 193 204 215 218 216 216 217 217 218 218 219 218 215 212 209 207 205 204 200 189 144 148 160 176
55 53 50 44 42 42 45 45 45 46 52 50 45 41 40 43 51 75 124 155 165 166 161 160 162 168 179 184 194 207 228 145 165 177 184 175 140 109 133 137 136 143 248 297 289 267 260 216 115 97 69 36 37 49 56 65 41 356 301 262 214 114 90 73 72 190 211 220 224 225 222 220 219 218 215 212 210 208 206 206 202 190 158 162 173 184
77 71 65 61 57 55 55 55 55 55 54 48 42 37 35 42 52 62 68 73 95 117 129 138 148 161 185 221 246 250 261 165 179 183 181 159 129 119 134 138 140 139 136 344 320 312 296 307 347 343 310 303 331 80 73 83 69 28 307 249 194 106 74 60 56 58 66 75 271 257 240 231 227 224 219 216 213 211 209 209 205 196 172 173 181 187
89 84 78 73 70 69 68 66 66 64 63 55 47 39 34 40 52 62 68 57 54 79 118 137 148 157 164 183 254 273 272 187 181 183 182 159 134 130 144 158 156 150 144 145 169 306 318 329 310 294 289 271 202 157 127 101 79 57 332 287 272 85 66 48 52 65 80 71 54 39 28 315 270 246 230 223 219 216 214 213 209 202 188 184 184 186
95 89 79 71 73 78 82 79 79 78 75 62 48 38 34 40 48 57 62 56 49 49 78 126 147 156 161 167 194 239 259 175 179 183 183 167 146 136 144 172 171 165 161 163 166 169 173 215 272 277 290 276 200 165 135 117 110 108 206 282 332 49 52 37 46 69 106 127 122 99 61 36 30 17 276 236 227 222 219 217 214 209 197 191 188 187
104 100 83 63 66 76 84 81 81 82 82 67 50 36 33 35 44 49 51 45 47 55 67 63 78 129 159 161 178 199 216 154 175 184 186 174 157 143 146 176 179 176 174 171 167 165 152 141 199 289 298 261 206 173 133 121 131 152 176 178 157 120 101 84 82 104 152 176 171 160 126 114 101 100 123 220 232 231 227 223 223 219 206 198 194 193
125 128 117 71 49 53 71 27 18 68 89 83 65 52 40 35 40 43 43 27 25 37 63 64 55 44 54 64 64 315 82 141 174 185 187 176 164 154 148 165 178 185 190 181 169 158 146 133 137 197 262 232 218 197 135 119 162 187 192 179 169 160 139 128 140 206 203 190 179 169 156 153 149 149 167 132 47 310 260 251 244 236 223 210 204 202
156 167 175 171 187 209 220 226 226 212 164 124 97 77 57 52 48 45 42 27 18 23 43 47 43 38 43 45 44 39 32 95 181 190 187 178 173 166 142 142 174 192 209 197 173 160 159 159 166 179 210 226 233 227 169 135 189 197 195 193 203 210 187 166 176 199 216 201 187 178 170 163 158 150 116 62 36 353 255 282 270 258 250 233 222 217
193 199 204 197 194 195 203 211 208 187 129 107 103 99 100 96 81 68 59 52 46 43 40 34 39 41 36 33 44 63 66 75 204 205 193 184 183 182 168 154 170 185 196 206 188 174 175 184 189 190 189 203 210 206 167 190 210 211 202 205 217 221 213 189 186 199 208 202 195 188 175 165 160 135 85 85 186 207 214 217 219 224 235 242 240 234
210 217 223 211 200 191 196 194 166 109 93 97 100 103 113 109 101 96 115 109 89 81 87 96 97 85 59 34 28 31 47 58 214 211 201 193 192 192 191 181 170 163 156 157 191 215 204 202 203 202 195 182 177 170 160 182 198 200 189 194 206 212 204 186 182 193 202 207 206 198 179 175 173 175 163 171 198 210 215 213 213 213 215 220 226 230
215 222 231 221 203 188 168 93 80 84 92 106 113 120 149 145 144 139 158 116 98 89 140 176 174 168 172 132 75 39 28 350 219 213 211 205 203 203 205 195 175 157 155 162 184 218 223 217 212 207 187 165 151 148 178 183 184 189 195 201 201 196 182 177 172 170 184 203 214 214 204 197 199 204 207 211 214 219 224 220 216 212 214 218 220 221
219 223 222 206 177 135 87 87 94 103 107 125 163 187 191 182 173 171 170 176 175 171 167 182 185 193 211 203 183 161 138 174 218 210 192 203 209 210 211 203 185 165 158 167 185 214 232 231 227 219 203 189 188 210 229 192 184 193 210 211 201 179 193 185 171 156 185 192 207 220 222 217 216 219 224 226 226 229 234 229 222 216 210 209 216 221
217 217 204 155 123 115 122 125 129 138 148 188 212 212 200 192 190 190 183 183 178 170 164 178 185 193 210 215 203 181 154 155 212 221 197 196 208 217 217 212 200 183 172 177 189 207 228 235 235 229 216 207 224 241 248 226 193 192 215 212 202 195 210 185 164 155 187 195 199 207 221 225 228 233 243 248 247 241 230 231 230 226 217 202 202 215
210 200 133 106 106 120 139 161 177 188 194 215 224 223 201 195 203 211 204 193 173 157 144 153 157 179 220 234 230 213 171 153 169 202 211 202 201 205 217 217 213 206 199 203 202 196 187 221 228 226 208 212 229 241 247 241 228 212 206 208 214 220 224 177 139 147 176 193 198 202 212 219 225 235 250 251 246 237 225 221 227 231 227 212 206 211
172 134 99 119 136 157 186 196 198 200 210 225 232 228 196 190 204 214 211 207 177 160 157 161 164 177 215 221 224 226 228 168 158 164 189 199 197 196 202 209 214 217 219 225 227 224 219 220 215 201 182 205 225 234 240 242 240 232 218 210 219 229 232 207 153 158 176 186 188 187 185 179 184 205 231 233 229 223 218 216 220 225 228 220 216 219
155 149 148 158 178 196 209 203 197 198 219 235 237 229 192 182 197 215 218 212 191 170 174 190 203 216 222 211 198 196 218 195 167 155 154 173 188 194 196 200 206 214 222 235 243 248 249 243 221 179 164 202 225 232 235 235 238 238 232 219 219 227 235 229 218 205 198 195 184 167 147 154 173 203 223 227 226 223 219 221 222 223 226 223 222 224
202 199 193 188 197 208 216 205 200 207 226 236 235 224 186 173 189 210 221 214 199 178 177 202 222 231 232 223 205 189 199 200 188 168 153 160 175 189 194 197 204 210 218 232 242 251 259 259 247 222 208 221 230 234 233 229 230 233 234 226 222 224 230 231 226 219 212 214 197 165 142 156 187 215 229 232 233 231 227 227 228 229 229 228 227 228
216 215 211 204 205 211 217 210 210 217 231 237 236 224 185 178 187 200 213 210 206 199 194 204 222 233 236 231 223 212 211 210 200 178 156 155 166 178 185 189 200 211 220 231 239 244 246 245 239 233 230 232 237 239 236 228 225 226 230 227 225 225 230 232 228 220 215 220 206 180 162 181 204 221 230 236 240 240 235 230 228 228 229 229 229 230
222 223 221 214 214 218 221 215 215 221 233 239 238 227 193 195 201 205 203 201 205 210 212 214 222 229 235 232 229 225 225 223 215 192 159 152 158 167 173 174 181 193 211 227 236 241 244 239 232 227 227 229 235 241 243 235 228 225 226 226 226 228 232 234 230 221 214 214 204 193 189 206 217 224 228 238 243 245 242 237 232 228 225 225 227 229
227 229 228 224 225 227 228 221 220 224 232 238 238 231 203 201 211 215 204 199 206 216 221 222 225 229 234 232 228 224 224 224 222 213 191 165 162 166 169 168 171 177 195 216 228 236 243 243 234 227 222 221 223 229 238 237 232 225 222 224 225 227 231 234 230 221 210 207 200 195 199 213 220 224 227 236 243 247 248 243 237 230 221 219 223 228
230 230 230 230 233 234 235 229 228 229 233 236 237 233 215 201 204 211 206 206 215 223 229 229 230 232 235 235 229 222 219 220 222 220 208 181 170 173 174 173 175 181 193 212 225 233 243 250 245 233 222 215 213 215 222 227 227 224 224 223 221 221 225 230 228 220 209 204 197 192 195 206 213 217 218 228 239 246 249 245 239 231 218 214 220 228